Terminal Aerodrome Forecast
Issued by NWS Austin/San Antonio, TX

Home | Current Version | Previous Version | Text Only | Print | Product List | Glossary On
Versions: 1 2 3 4 5 6 7 8 9 10 11 12 13
000
FTUS44 KEWX 281700
TAFDRT
TAF
KDRT 281730Z 2818/2918 14008KT P6SM SCT250
     FM290100 10005KT P6SM FEW100 SCT250
     FM291700 13006KT P6SM SCT100 BKN200=

USA.gov is the U.S. government's official web portal to all federal, state and local government web resources and services.